Location: Praha
(50.0830°N, 14.4670°E)
Time: 07:10:24
(UTC+02:00)

ISS - Pass Details

Date: 03 July 2022
Orbit: 414 x 420 km, 51.6° (Epoch: 02 July)

Event Time Altitude Azimuth Distance (km) Brightness Sun altitude
Exits shadow 01:48:59 12° 120° (ESE) 1,387 -1.3 -16.3°
Drops below altitude 10° 01:49:40 10° 109° (ESE) 1,495 -1.0 -16.3°
Sets 01:52:40 0° 79° (E) 2,365 0.4 -16.2°
